Total_Precipitation_Accumulation
0.00 0.00 0.00 0.00 0.00 0.00 0.00 0.00 0.00 0.00 0.00 0.00 0.00 0.00 0.00 0.00 0.00 0.00 0.00 0.00 0.00 0.00 0.00 0.00 0.00 0.00 0.00 0.00 0.00 0.00 0.00 0.00 0.00 0.00 0.01 0.00 0.01 0.02 0.05 0.14 0.16 0.22 0.31 0.28
0.02 0.02 0.00 0.00 0.00 0.00 0.02 0.02 0.00 0.00 0.00 0.00 0.00 0.00 0.00 0.00 0.00 0.00 0.00 0.00 0.00 0.00 0.00 0.00 0.00 0.00 0.00 0.00 0.00 0.00 0.00 0.00 0.00 0.00 0.00 0.00 0.00 0.01 0.04 0.11 0.25 0.25 0.44 0.42
0.05 0.01 0.00 0.00 0.00 0.00 0.00 0.01 0.00 0.00 0.00 0.01 0.00 0.00 0.00 0.00 0.00 0.00 0.00 0.00 0.00 0.00 0.00 0.00 0.00 0.00 0.00 0.00 0.00 0.00 0.00 0.00 0.00 0.00 0.00 0.01 0.01 0.02 0.04 0.08 0.19 0.33 0.43 0.51
0.07 0.01 0.00 0.00 0.00 0.00 0.00 0.00 0.00 0.01 0.04 0.04 0.00 0.00 0.00 0.00 0.00 0.00 0.00 0.00 0.00 0.00 0.00 0.00 0.00 0.00 0.00 0.00 0.00 0.00 0.00 0.00 0.01 0.00 0.00 0.00 0.00 0.00 0.01 0.01 0.06 0.17 0.44 0.63
0.16 0.02 0.00 0.00 0.00 0.00 0.01 0.00 0.00 0.00 0.00 0.00 0.00 0.01 0.00 0.00 0.00 0.00 0.00 0.00 0.00 0.00 0.00 0.00 0.00 0.00 0.00 0.00 0.00 0.00 0.00 0.00 0.00 0.00 0.00 0.00 0.00 0.00 0.01 0.01 0.03 0.09 0.25 0.53
0.04 0.01 0.00 0.00 0.00 0.00 0.00 0.00 0.00 0.00 0.00 0.03 0.00 0.00 0.00 0.00 0.00 0.00 0.00 0.00 0.00 0.00 0.00 0.00 0.00 0.00 0.00 0.00 0.00 0.00 0.00 0.01 0.01 0.01 0.00 0.00 0.00 0.00 0.00 0.00 0.00 0.02 0.11 0.29
0.03 0.03 0.00 0.00 0.00 0.00 0.00 0.00 0.01 0.02 0.01 0.01 0.00 0.01 0.00 0.00 0.00 0.00 0.00 0.00 0.00 0.00 0.00 0.00 0.00 0.00 0.00 0.00 0.00 0.00 0.00 0.01 0.02 0.01 0.00 0.00 0.00 0.00 0.00 0.00 0.00 0.01 0.03 0.11
0.04 0.10 0.03 0.00 0.00 0.00 0.00 0.00 0.01 0.02 0.01 0.02 0.00 0.01 0.00 0.00 0.00 0.00 0.00 0.00 0.00 0.00 0.00 0.00 0.00 0.00 0.00 0.00 0.00 0.00 0.00 0.01 0.01 0.01 0.00 0.00 0.00 0.00 0.00 0.01 0.00 0.00 0.01 0.05
0.04 0.03 0.02 0.00 0.00 0.00 0.00 0.00 0.00 0.00 0.01 0.04 0.02 0.01 0.01 0.00 0.00 0.00 0.00 0.00 0.00 0.00 0.00 0.00 0.00 0.00 0.00 0.00 0.00 0.00 0.00 0.01 0.01 0.01 0.01 0.00 0.00 0.00 0.00 0.00 0.00 0.00 0.00 0.05
0.09 0.08 0.01 0.01 0.00 0.00 0.00 0.00 0.00 0.00 0.01 0.01 0.01 0.01 0.03 0.01 0.02 0.03 0.01 0.00 0.00 0.00 0.00 0.00 0.00 0.00 0.00 0.00 0.00 0.00 0.00 0.00 0.00 0.01 0.01 0.00 0.00 0.00 0.00 0.00 0.00 0.00 0.00 0.03
0.10 0.13 0.04 0.00 0.00 0.00 0.00 0.00 0.00 0.00 0.00 0.00 0.01 0.02 0.02 0.07 0.07 0.14 0.10 0.06 0.02 0.01 0.00 0.00 0.00 0.00 0.00 0.00 0.00 0.00 0.00 0.00 0.00 0.01 0.01 0.01 0.01 0.00 0.00 0.01 0.00 0.00 0.00 0.00
0.08 0.13 0.09 0.01 0.01 0.00 0.00 0.00 0.00 0.00 0.00 0.00 0.00 0.02 0.02 0.04 0.06 0.06 0.14 0.18 0.13 0.06 0.02 0.00 0.00 0.00 0.00 0.00 0.00 0.00 0.01 0.01 0.02 0.02 0.02 0.01 0.01 0.01 0.01 0.01 0.00 0.00 0.00 0.00
0.13 0.24 0.40 0.22 0.13 0.06 0.04 0.00 0.00 0.00 0.00 0.01 0.01 0.02 0.01 0.01 0.03 0.07 0.13 0.24 0.12 0.10 0.09 0.03 0.03 0.02 0.04 0.04 0.02 0.02 0.03 0.04 0.05 0.03 0.02 0.02 0.02 0.02 0.02 0.02 0.00 0.00 0.00 0.00
0.12 0.13 0.26 0.46 0.25 0.07 0.09 0.03 0.00 0.01 0.01 0.00 0.01 0.03 0.02 0.04 0.11 0.07 0.12 0.16 0.16 0.17 0.22 0.20 0.23 0.13 0.15 0.15 0.13 0.08 0.09 0.13 0.12 0.07 0.07 0.08 0.09 0.07 0.05 0.02 0.00 0.00 0.00 0.00
0.15 0.16 0.14 0.11 0.04 0.15 0.09 0.07 0.02 0.02 0.02 0.02 0.02 0.02 0.10 0.23 0.31 0.06 0.06 0.06 0.19 0.23 0.24 0.22 0.68 0.48 0.22 0.19 0.22 0.23 0.21 0.31 0.32 0.24 0.18 0.14 0.11 0.07 0.06 0.04 0.01 0.00 0.00 0.00
0.18 0.16 0.09 0.03 0.01 0.02 0.03 0.02 0.05 0.02 0.01 0.01 0.01 0.05 0.27 0.21 0.07 0.07 0.06 0.09 0.16 0.30 0.25 0.22 0.52 1.05 0.58 0.39 0.37 0.43 0.52 0.65 0.52 0.43 0.38 0.23 0.16 0.16 0.11 0.06 0.03 0.01 0.01 0.01
0.07 0.09 0.05 0.04 0.01 0.00 0.00 0.00 0.00 0.00 0.00 0.01 0.07 0.15 0.09 0.03 0.04 0.05 0.05 0.05 0.10 0.15 0.28 0.26 0.34 0.93 0.91 0.67 0.63 0.53 0.73 0.85 0.72 0.64 0.55 0.37 0.27 0.23 0.16 0.10 0.05 0.02 0.01 0.01
0.05 0.04 0.04 0.04 0.00 0.01 0.07 0.04 0.02 0.02 0.08 0.03 0.02 0.02 0.00 0.01 0.11 0.08 0.05 0.05 0.06 0.07 0.17 0.29 0.29 0.55 0.87 0.62 0.53 0.52 0.61 0.82 0.76 0.63 0.59 0.49 0.32 0.26 0.20 0.12 0.08 0.03 0.01 0.01
0.01 0.05 0.08 0.04 0.03 0.03 0.12 0.13 0.11 0.16 0.18 0.06 0.08 0.08 0.02 0.01 0.04 0.03 0.02 0.04 0.03 0.05 0.09 0.14 0.26 0.41 0.96 0.90 0.73 0.71 0.57 0.65 0.75 0.60 0.58 0.54 0.45 0.29 0.21 0.15 0.12 0.06 0.03 0.02
0.04 0.03 0.06 0.05 0.07 0.10 0.26 0.23 0.03 0.16 0.32 0.14 0.02 0.03 0.03 0.02 0.08 0.06 0.05 0.08 0.04 0.06 0.10 0.13 0.14 0.29 0.71 1.17 1.05 1.29 0.97 0.86 0.82 0.67 0.62 0.60 0.45 0.33 0.21 0.18 0.14 0.12 0.09 0.06
0.12 0.15 0.11 0.08 0.08 0.11 0.04 0.07 0.12 0.35 0.38 0.18 0.05 0.03 0.20 0.20 0.11 0.05 0.14 0.12 0.14 0.09 0.09 0.08 0.10 0.20 0.33 0.85 1.13 1.25 1.52 1.24 1.00 0.85 0.63 0.78 0.60 0.39 0.27 0.25 0.20 0.18 0.17 0.16
0.29 0.23 0.29 0.25 0.21 0.16 0.02 0.03 0.32 0.66 0.23 0.11 0.05 0.00 0.09 0.28 0.46 0.34 0.26 0.23 0.27 0.29 0.26 0.15 0.07 0.12 0.26 0.33 0.76 0.97 1.14 1.24 1.22 1.20 1.00 0.78 1.01 0.78 0.52 0.41 0.30 0.21 0.23 0.27
0.47 0.25 0.26 0.16 0.25 0.09 0.02 0.08 0.02 0.02 0.02 0.01 0.00 0.00 0.03 0.05 0.25 0.47 0.47 0.36 0.33 0.47 0.49 0.35 0.22 0.16 0.15 0.21 0.34 0.55 0.75 0.79 0.93 0.87 0.97 1.03 0.88 0.98 0.92 0.72 0.66 0.46 0.38 0.39
0.67 0.40 0.47 0.28 0.27 0.11 0.09 0.18 0.05 0.01 0.00 0.00 0.00 0.00 0.00 0.01 0.01 0.06 0.16 0.14 0.26 0.53 0.46 0.34 0.26 0.27 0.24 0.19 0.17 0.18 0.17 0.24 0.34 0.42 0.48 0.55 0.68 0.67 0.74 0.74 0.75 0.71 0.66 0.71
0.28 0.56 0.90 0.75 0.63 0.35 0.14 0.13 0.16 0.06 0.01 0.00 0.00 0.00 0.00 0.00 0.01 0.01 0.02 0.03 0.08 0.23 0.26 0.32 0.30 0.30 0.28 0.24 0.16 0.11 0.08 0.06 0.09 0.07 0.05 0.09 0.20 0.27 0.32 0.45 0.57 0.59 0.70 0.81
0.23 0.69 0.89 1.35 0.95 0.67 0.39 0.30 0.21 0.16 0.04 0.00 0.00 0.00 0.00 0.00 0.00 0.00 0.01 0.01 0.02 0.04 0.04 0.08 0.10 0.10 0.09 0.07 0.07 0.05 0.04 0.05 0.07 0.08 0.07 0.08 0.06 0.13 0.21 0.28 0.43 0.60 0.67 0.69